| time (UTC) | temp C | wind direction | speed KPH | gust KPH | rain 1hr cm | rain 24hr cm | rain mn cm | humidity % | barometer mb |
| 20260509173044 | 21 | 96 | 8.0 | 12.9 | 0.00 | 0.05 | 0.00 | 61 | 1012.3 |
| 20260509171544 | 21 | 88 | 9.7 | 14.5 | 0.00 | 0.05 | 0.00 | 61 | 1012.3 |
| 20260509170036 | 21 | 90 | 9.7 | 17.7 | 0.00 | 0.05 | 0.00 | 55 | 1012.5 |
| 20260509164538 | 21 | 82 | 6.4 | 16.1 | 0.00 | 0.05 | 0.00 | 51 | 1012.5 |
| 20260509163032 | 21 | 60 | 8.0 | 16.1 | 0.00 | 0.05 | 0.00 | 44 | 1012.6 |
| 20260509161533 | 21 | 73 | 12.9 | 19.3 | 0.00 | 0.05 | 0.00 | 50 | 1012.6 |
| 20260509160026 | 22 | 96 | 6.4 | 12.9 | 0.00 | 0.05 | 0.00 | 69 | 1012.3 |
| 20260509154526 | 22 | 85 | 9.7 | 14.5 | 0.00 | 0.05 | 0.00 | 74 | 1012.3 |
| 20260509153024 | 22 | 114 | 3.2 | 11.3 | 0.00 | 0.05 | 0.00 | 74 | 1012.3 |
| 20260509151522 | 22 | 65 | 8.0 | 11.3 | 0.00 | 0.05 | 0.00 | 76 | 1012.2 |
| 20260509150019 | 22 | 83 | 8.0 | 14.5 | 0.00 | 0.05 | 0.00 | 74 | 1012.0 |
| 20260509144520 | 22 | 108 | 6.4 | 14.5 | 0.00 | 0.05 | 0.00 | 74 | 1012.1 |
| 20260509143023 | 22 | 104 | 1.6 | 9.7 | 0.00 | 0.05 | 0.00 | 71 | 1011.8 |
| 20260509141523 | 22 | 129 | 6.4 | 12.9 | 0.00 | 0.05 | 0.00 | 68 | 1011.7 |
| 20260509140015 | 22 | 148 | 1.6 | 9.7 | 0.00 | 0.05 | 0.00 | 66 | 1011.7 |
| 20260509134514 | 23 | 166 | 1.6 | 8.0 | 0.00 | 0.05 | 0.00 | 73 | 1011.6 |
| 20260509133011 | 23 | 36 | 0.0 | 1.6 | 0.00 | 0.05 | 0.00 | 59 | 1011.3 |
| 20260509131515 | 22 | 35 | 0.0 | 0.0 | 0.00 | 0.05 | 0.00 | 47 | 1011.1 |
| 20260509130010 | 22 | 36 | 0.0 | 1.6 | 0.00 | 0.05 | 0.00 | 52 | 1011.0 |
| 20260509124504 | 22 | 35 | 0.0 | 0.0 | 0.00 | 0.05 | 0.00 | 47 | 1010.7 |
| 20260509123003 | 22 | 35 | 0.0 | 0.0 | 0.00 | 0.05 | 0.00 | 48 | 1010.5 |
| 20260509121604 | 22 | 36 | 0.0 | 3.2 | 0.00 | 0.05 | 0.00 | 42 | 1010.1 |
| 20260509120107 | 22 | 36 | 1.6 | 6.4 | 0.00 | 0.05 | 0.00 | 38 | 1009.8 |
| 20260509114601 | 22 | 65 | 0.0 | 1.6 | 0.00 | 0.05 | 0.00 | 43 | 1009.4 |
| 20260509113052 | 22 | 65 | 0.0 | 1.6 | 0.00 | 0.05 | 0.00 | 51 | 1009.1 |
| 20260509111552 | 23 | 65 | 0.0 | 3.2 | 0.00 | 0.05 | 0.00 | 65 | 1009.0 |
| 20260509110047 | 23 | 103 | 1.6 | 3.2 | 0.00 | 0.05 | 0.00 | 71 | 1008.7 |
| 20260509104547 | 23 | 102 | 0.0 | 3.2 | 0.00 | 0.05 | 0.00 | 71 | 1008.6 |
| 20260509103047 | 23 | 119 | 1.6 | 3.2 | 0.00 | 0.05 | 0.00 | 67 | 1008.5 |
| 20260509101543 | 23 | 119 | 0.0 | 0.0 | 0.00 | 0.05 | 0.00 | 62 | 1008.4 |
| 20260509100052 | 23 | 119 | 0.0 | 8.0 | 0.00 | 0.05 | 0.00 | 58 | 1008.4 |
| 20260509094542 | 23 | 183 | 0.0 | 1.6 | 0.00 | 0.05 | 0.00 | 47 | 1008.4 |
| 20260509093042 | 23 | 217 | 0.0 | 4.8 | 0.00 | 0.05 | 0.00 | 32 | 1008.5 |
| 20260509091541 | 23 | 110 | 0.0 | 0.0 | 0.00 | 0.05 | 0.00 | 28 | 1008.3 |
| 20260509090041 | 23 | 110 | 0.0 | 0.0 | 0.00 | 0.05 | 0.00 | 31 | 1008.2 |
| 20260509084540 | 23 | 110 | 1.6 | 3.2 | 0.00 | 0.05 | 0.00 | 34 | 1008.3 |
| 20260509083041 | 23 | 101 | 3.2 | 8.0 | 0.00 | 0.05 | 0.00 | 28 | 1008.3 |
| 20260509081544 | 23 | 55 | 3.2 | 6.4 | 0.00 | 0.05 | 0.00 | 25 | 1008.6 |
| 20260509080040 | 23 | 52 | 4.8 | 9.7 | 0.00 | 0.05 | 0.00 | 29 | 1008.5 |
| 20260509074537 | 23 | 51 | 1.6 | 9.7 | 0.00 | 0.05 | 0.00 | 32 | 1008.6 |
| 20260509073031 | 23 | 61 | 4.8 | 11.3 | 0.00 | 0.05 | 0.00 | 36 | 1008.6 |
| 20260509071530 | 23 | 63 | 6.4 | 9.7 | 0.00 | 0.05 | 0.00 | 38 | 1008.4 |
| 20260509070030 | 23 | 65 | 4.8 | 9.7 | 0.00 | 0.05 | 0.00 | 41 | 1008.3 |
| 20260509064525 | 23 | 79 | 6.4 | 11.3 | 0.00 | 0.05 | 0.00 | 47 | 1008.2 |
| 20260509063023 | 23 | 60 | 4.8 | 9.7 | 0.00 | 0.05 | 0.00 | 51 | 1008.1 |
| 20260509061520 | 23 | 58 | 6.4 | 11.3 | 0.00 | 0.05 | 0.00 | 57 | 1007.8 |
| 20260509060018 | 23 | 32 | 3.2 | 9.7 | 0.00 | 0.05 | 0.00 | 61 | 1007.5 |
| 20260509054522 | 23 | 61 | 3.2 | 8.0 | 0.00 | 0.05 | 0.05 | 57 | 1007.6 |
| 20260509053017 | 23 | 33 | 1.6 | 9.7 | 0.00 | 0.05 | 0.05 | 54 | 1007.8 |
| 20260509051527 | 23 | 70 | 3.2 | 8.0 | 0.00 | 0.05 | 0.05 | 58 | 1008.0 |
| 20260509050020 | 23 | 57 | 6.4 | 11.3 | 0.00 | 0.05 | 0.05 | 54 | 1007.9 |
| 20260509044515 | 23 | 57 | 4.8 | 12.9 | 0.00 | 0.05 | 0.05 | 53 | 1008.1 |
| 20260509043013 | 23 | 51 | 4.8 | 17.7 | 0.00 | 0.05 | 0.05 | 56 | 1008.0 |
| 20260509041513 | 23 | 65 | 11.3 | 16.1 | 0.00 | 0.05 | 0.05 | 55 | 1007.6 |
| 20260509040016 | 23 | 73 | 8.0 | 11.3 | 0.00 | 0.05 | 0.05 | 52 | 1008.6 |
| 20260509034514 | 23 | 70 | 8.0 | 19.3 | 0.00 | 0.05 | 0.05 | 54 | 1008.6 |
| 20260509033012 | 23 | 62 | 6.4 | 12.9 | 0.00 | 0.05 | 0.05 | 56 | 1008.3 |
| 20260509031511 | 23 | 63 | 3.2 | 8.0 | 0.00 | 0.05 | 0.05 | 59 | 1008.5 |
| 20260509030010 | 23 | 68 | 4.8 | 12.9 | 0.00 | 0.05 | 0.05 | 59 | 1008.3 |
| 20260509024510 | 23 | 72 | 12.9 | 19.3 | 0.00 | 0.05 | 0.05 | 59 | 1007.9 |
| 20260509023015 | 23 | 73 | 8.0 | 12.9 | 0.00 | 0.05 | 0.05 | 62 | 1008.1 |
| 20260509021514 | 23 | 59 | 8.0 | 12.9 | 0.00 | 0.05 | 0.05 | 64 | 1008.0 |
| 20260509020008 | 23 | 78 | 6.4 | 12.9 | 0.00 | 0.05 | 0.05 | 65 | 1007.6 |
| 20260509014508 | 23 | 93 | 4.8 | 9.7 | 0.00 | 1.45 | 0.05 | 68 | 1007.3 |
| 20260509013021 | 23 | 68 | 4.8 | 11.3 | 0.00 | 1.45 | 0.05 | 69 | 1007.3 |
| 20260509011506 | 23 | 105 | 8.0 | 11.3 | 0.00 | 1.45 | 0.05 | 69 | 1007.1 |
| 20260509010007 | 23 | 67 | 9.7 | 14.5 | 0.00 | 2.46 | 0.05 | 70 | 1007.1 |
| 20260509004506 | 23 | 68 | 6.4 | 16.1 | 0.00 | 2.46 | 0.05 | 72 | 1007.1 |
| 20260509003005 | 23 | 63 | 6.4 | 14.5 | 0.00 | 2.46 | 0.05 | 72 | 1007.0 |
| 20260509001507 | 23 | 59 | 8.0 | 12.9 | 0.00 | 2.46 | 0.05 | 72 | 1007.0 |
| 20260509000003 | 23 | 65 | 8.0 | 17.7 | 0.00 | 2.46 | 0.05 | 73 | 1006.6 |
| 20260508234502 | 24 | 60 | 9.7 | 16.1 | 0.00 | 2.46 | 0.05 | 76 | 1006.6 |
| 20260508233104 | 24 | 61 | 4.8 | 11.3 | 0.00 | 2.46 | 0.05 | 77 | 1006.6 |
| 20260508231605 | 24 | 70 | 6.4 | 14.5 | 0.00 | 2.46 | 0.05 | 77 | 1006.7 |
| 20260508224607 | 24 | 82 | 6.4 | 14.5 | 0.00 | 2.46 | 0.05 | 78 | 1006.9 |
| 20260508223055 | 24 | 72 | 3.2 | 11.3 | 0.00 | 2.46 | 0.05 | 77 | 1007.0 |
| 20260508221602 | 23 | 82 | 4.8 | 11.3 | 0.03 | 2.46 | 0.05 | 75 | 1007.1 |
| 20260508220053 | 23 | 58 | 9.7 | 16.1 | 0.05 | 2.46 | 0.05 | 77 | 1007.2 |
| 20260508214551 | 23 | 70 | 9.7 | 14.5 | 0.05 | 2.46 | 0.05 | 78 | 1007.3 |
| 20260508213110 | 23 | 80 | 8.0 | 14.5 | 0.05 | 2.46 | 0.05 | 77 | 1007.5 |
| 20260508211551 | 23 | 68 | 3.2 | 12.9 | 0.05 | 2.44 | 0.05 | 76 | 1007.9 |
| 20260508210047 | 23 | 82 | 4.8 | 16.1 | 0.03 | 2.41 | 0.03 | 79 | 1008.0 |
| 20260508204548 | 24 | 69 | 8.0 | 17.7 | 0.00 | 2.39 | 0.00 | 79 | 1008.1 |
| 20260508203045 | 24 | 100 | 9.7 | 12.9 | 0.00 | 2.39 | 0.00 | 79 | 1008.1 |
| 20260508201542 | 24 | 118 | 9.7 | 12.9 | 0.00 | 2.39 | 0.00 | 79 | 1008.4 |
| 20260508200049 | 25 | 105 | 8.0 | 12.9 | 0.00 | 2.39 | 0.00 | 79 | 1008.8 |
| 20260508194538 | 23 | 63 | 12.9 | 19.3 | 0.00 | 2.39 | 0.00 | 79 | 1008.8 |
| 20260508193108 | 24 | 70 | 8.0 | 14.5 | 0.00 | 2.39 | 0.00 | 79 | 1009.4 |
| 20260508191536 | 24 | 101 | 6.4 | 12.9 | 0.00 | 2.39 | 0.00 | 79 | 1009.2 |
| 20260508190038 | 23 | 101 | 6.4 | 16.1 | 0.00 | 2.39 | 0.00 | 79 | 1009.3 |
| 20260508184532 | 23 | 113 | 8.0 | 16.1 | 0.00 | 2.39 | 0.00 | 79 | 1009.6 |
| 20260508183029 | 24 | 71 | 9.7 | 22.5 | 0.00 | 2.39 | 0.00 | 79 | 1009.8 |
| 20260508181529 | 25 | 91 | 9.7 | 11.3 | 0.00 | 2.39 | 0.00 | 78 | 1010.1 |
| 20260508180029 | 24 | 71 | 4.8 | 9.7 | 0.00 | 2.39 | 0.00 | 79 | 1010.1 |
| 20260508174533 | 24 | 63 | 4.8 | 9.7 | 0.00 | 2.39 | 0.00 | 79 | 1010.3 |